contact:dominique.lefevre@mio.osupytheas.fr, maurice.libes@osupytheas.fr, didier.mallarino@osupytheas.fr
Project:EMSO http://www.emso-fr.org/EMSO-France
Depth: 2436.0 m
Title:EMSO Ligure Ouest : Data MII capteur CSTAR
DateTime,Latitude,Longitude,Instrument_Serial,Reference_Counts,Signal_Counts,Corrected_Signal_raw_counts,Calculated_Beam_c_inverse_meters,Internal_thermistor_counts
DateTime,Latitude,Longitude,Instrument_Serial,Reference_Counts,Signal_Counts,Corrected_Signal_raw_counts,Calculated_Beam_c_inverse_meters,Internal_thermistor_counts
2020-11-27T00:01:29,42.805,6.029,CST-1368DR,5754,8052,15064,0.144,551
2020-11-27T00:04:30,42.805,6.029,CST-1368DR,5754,8053,15065,0.144,551
2020-11-27T00:07:32,42.805,6.029,CST-1368DR,5754,8053,15065,0.144,551
2020-11-27T00:10:34,42.805,6.029,CST-1368DR,5754,8053,15064,0.144,551
2020-11-27T00:13:35,42.805,6.029,CST-1368DR,5754,8052,15063,0.144,551
2020-11-27T00:16:37,42.805,6.029,CST-1368DR,5754,8052,15063,0.144,551
2020-11-27T00:19:38,42.805,6.029,CST-1368DR,5754,8053,15065,0.144,551
2020-11-27T00:22:40,42.805,6.029,CST-1368DR,5754,8053,15064,0.144,551
2020-11-27T00:25:41,42.805,6.029,CST-1368DR,5754,8053,15065,0.144,551
2020-11-27T00:28:43,42.805,6.029,CST-1368DR,5754,8052,15064,0.144,551
2020-11-27T00:31:45,42.805,6.029,CST-1368DR,5754,8052,15064,0.144,551
2020-11-27T00:34:46,42.805,6.029,CST-1368DR,5754,8053,15065,0.144,551
2020-11-27T00:37:48,42.805,6.029,CST-1368DR,5754,8052,15064,0.144,551
2020-11-27T00:40:49,42.805,6.029,CST-1368DR,5754,8053,15065,0.144,551
2020-11-27T00:43:51,42.805,6.029,CST-1368DR,5754,8053,15065,0.144,551
2020-11-27T00:46:52,42.805,6.029,CST-1368DR,5754,8050,15060,0.145,550
2020-11-27T00:49:54,42.805,6.029,CST-1368DR,5754,8053,15065,0.144,551
2020-11-27T00:52:56,42.805,6.029,CST-1368DR,5754,8053,15065,0.144,551
2020-11-27T00:55:57,42.805,6.029,CST-1368DR,5754,8053,15065,0.144,551
2020-11-27T00:58:59,42.805,6.029,CST-1368DR,5754,8053,15064,0.144,551
2020-11-27T01:02:00,42.805,6.029,CST-1368DR,5754,8053,15065,0.144,551
2020-11-27T01:05:02,42.805,6.029,CST-1368DR,5754,8053,15064,0.144,551
2020-11-27T01:08:04,42.805,6.029,CST-1368DR,5754,8053,15065,0.144,551
2020-11-27T01:11:05,42.805,6.029,CST-1368DR,5754,8053,15064,0.144,550
2020-11-27T01:14:07,42.805,6.029,CST-1368DR,5754,8052,15062,0.144,551
2020-11-27T01:17:08,42.805,6.029,CST-1368DR,5754,8052,15064,0.144,551
2020-11-27T01:20:10,42.805,6.029,CST-1368DR,5754,8052,15063,0.144,551
2020-11-27T01:23:11,42.805,6.029,CST-1368DR,5754,8052,15062,0.144,551
2020-11-27T01:26:13,42.805,6.029,CST-1368DR,5754,8052,15064,0.144,551
2020-11-27T01:29:15,42.805,6.029,CST-1368DR,5754,8052,15064,0.144,551
2020-11-27T01:32:16,42.805,6.029,CST-1368DR,5754,8052,15064,0.144,551
2020-11-27T01:35:18,42.805,6.029,CST-1368DR,5754,8052,15064,0.144,551
2020-11-27T01:38:19,42.805,6.029,CST-1368DR,5754,8052,15064,0.144,550
2020-11-27T01:41:21,42.805,6.029,CST-1368DR,5754,8053,15065,0.144,551
2020-11-27T01:44:23,42.805,6.029,CST-1368DR,5754,8052,15064,0.144,551
2020-11-27T01:47:24,42.805,6.029,CST-1368DR,5754,8053,15064,0.144,551
2020-11-27T01:50:26,42.805,6.029,CST-1368DR,5754,8053,15064,0.144,551
2020-11-27T01:53:27,42.805,6.029,CST-1368DR,5754,8053,15064,0.144,551
2020-11-27T01:56:29,42.805,6.029,CST-1368DR,5754,8053,15064,0.144,551
2020-11-27T01:59:30,42.805,6.029,CST-1368DR,5754,8053,15065,0.144,551
2020-11-27T02:02:32,42.805,6.029,CST-1368DR,5754,8053,15064,0.144,551
2020-11-27T02:05:34,42.805,6.029,CST-1368DR,5754,8053,15064,0.144,551
2020-11-27T02:08:35,42.805,6.029,CST-1368DR,5754,8052,15064,0.144,550
2020-11-27T02:11:37,42.805,6.029,CST-1368DR,5754,8052,15063,0.144,551
2020-11-27T02:14:38,42.805,6.029,CST-1368DR,5754,8050,15060,0.145,551
2020-11-27T02:17:40,42.805,6.029,CST-1368DR,5754,8052,15063,0.144,551
2020-11-27T02:20:41,42.805,6.029,CST-1368DR,5754,8052,15064,0.144,551
2020-11-27T02:23:43,42.805,6.029,CST-1368DR,5754,8052,15063,0.144,551
2020-11-27T02:26:45,42.805,6.029,CST-1368DR,5754,8053,15064,0.144,551
2020-11-27T02:29:46,42.805,6.029,CST-1368DR,5754,8053,15065,0.144,551
2020-11-27T02:32:48,42.805,6.029,CST-1368DR,5754,8052,15064,0.144,551
2020-11-27T02:35:49,42.805,6.029,CST-1368DR,5754,8052,15064,0.144,551
2020-11-27T02:38:51,42.805,6.029,CST-1368DR,5754,8052,15062,0.144,551
2020-11-27T02:41:53,42.805,6.029,CST-1368DR,5754,8052,15063,0.144,551
2020-11-27T02:44:54,42.805,6.029,CST-1368DR,5754,8052,15064,0.144,551
2020-11-27T02:47:56,42.805,6.029,CST-1368DR,5754,8051,15062,0.144,550
2020-11-27T02:50:57,42.805,6.029,CST-1368DR,5754,8052,15062,0.144,551
2020-11-27T02:53:59,42.805,6.029,CST-1368DR,5754,8053,15064,0.144,551
2020-11-27T02:57:00,42.805,6.029,CST-1368DR,5754,8052,15062,0.144,551
2020-11-27T03:00:02,42.805,6.029,CST-1368DR,5754,8052,15062,0.144,551
2020-11-27T03:03:04,42.805,6.029,CST-1368DR,5754,8051,15062,0.144,551
2020-11-27T03:06:05,42.805,6.029,CST-1368DR,5754,8051,15061,0.145,551
2020-11-27T03:09:07,42.805,6.029,CST-1368DR,5754,8052,15063,0.144,551
2020-11-27T03:12:08,42.805,6.029,CST-1368DR,5754,8052,15062,0.144,551
2020-11-27T03:15:10,42.805,6.029,CST-1368DR,5754,8052,15062,0.144,551
2020-11-27T03:18:11,42.805,6.029,CST-1368DR,5754,8052,15063,0.144,551
2020-11-27T03:21:13,42.805,6.029,CST-1368DR,5754,8051,15061,0.145,551
2020-11-27T03:24:15,42.805,6.029,CST-1368DR,5754,8052,15062,0.144,551
2020-11-27T03:27:16,42.805,6.029,CST-1368DR,5754,8051,15061,0.145,551
2020-11-27T03:30:18,42.805,6.029,CST-1368DR,5754,8051,15062,0.144,551
2020-11-27T03:33:19,42.805,6.029,CST-1368DR,5754,8052,15062,0.144,551
2020-11-27T03:36:21,42.805,6.029,CST-1368DR,5754,8050,15060,0.145,551
2020-11-27T03:39:23,42.805,6.029,CST-1368DR,5754,8051,15061,0.145,551
2020-11-27T03:42:24,42.805,6.029,CST-1368DR,5754,8052,15062,0.144,551
2020-11-27T03:45:26,42.805,6.029,CST-1368DR,5754,8052,15063,0.144,551
2020-11-27T03:48:27,42.805,6.029,CST-1368DR,5754,8052,15063,0.144,551
2020-11-27T03:51:29,42.805,6.029,CST-1368DR,5754,8051,15062,0.144,551
2020-11-27T03:54:30,42.805,6.029,CST-1368DR,5754,8051,15061,0.145,551
2020-11-27T03:57:32,42.805,6.029,CST-1368DR,5754,8052,15063,0.144,551
2020-11-27T04:00:34,42.805,6.029,CST-1368DR,5754,8051,15062,0.144,551
2020-11-27T04:03:35,42.805,6.029,CST-1368DR,5754,8052,15062,0.144,551
2020-11-27T04:06:37,42.805,6.029,CST-1368DR,5754,8051,15061,0.145,551
2020-11-27T04:09:38,42.805,6.029,CST-1368DR,5754,8052,15062,0.144,551
2020-11-27T04:12:40,42.805,6.029,CST-1368DR,5754,8052,15062,0.144,551
2020-11-27T04:15:42,42.805,6.029,CST-1368DR,5754,8051,15062,0.144,551
2020-11-27T04:18:43,42.805,6.029,CST-1368DR,5754,8051,15061,0.145,551
2020-11-27T04:21:45,42.805,6.029,CST-1368DR,5754,8052,15062,0.144,551
2020-11-27T04:24:46,42.805,6.029,CST-1368DR,5754,8051,15061,0.145,551
2020-11-27T04:27:48,42.805,6.029,CST-1368DR,5754,8052,15062,0.144,550
2020-11-27T04:30:49,42.805,6.029,CST-1368DR,5754,8051,15062,0.144,551
2020-11-27T04:33:51,42.805,6.029,CST-1368DR,5754,8051,15061,0.145,551
2020-11-27T04:36:53,42.805,6.029,CST-1368DR,5754,8051,15062,0.144,551
2020-11-27T04:39:54,42.805,6.029,CST-1368DR,5754,8051,15062,0.144,551
2020-11-27T04:42:56,42.805,6.029,CST-1368DR,5754,8051,15062,0.144,551
2020-11-27T04:45:57,42.805,6.029,CST-1368DR,5754,8052,15062,0.144,551
2020-11-27T04:48:59,42.805,6.029,CST-1368DR,5754,8050,15059,0.145,551
2020-11-27T04:52:00,42.805,6.029,CST-1368DR,5754,8051,15062,0.144,551
2020-11-27T04:55:02,42.805,6.029,CST-1368DR,5754,8051,15061,0.145,551
2020-11-27T04:58:04,42.805,6.029,CST-1368DR,5754,8051,15062,0.144,551
2020-11-27T05:01:05,42.805,6.029,CST-1368DR,5754,8052,15062,0.144,551
2020-11-27T05:04:07,42.805,6.029,CST-1368DR,5754,8051,15061,0.145,551
2020-11-27T05:07:08,42.805,6.029,CST-1368DR,5754,8051,15061,0.145,551
2020-11-27T05:10:10,42.805,6.029,CST-1368DR,5754,8051,15061,0.145,551
2020-11-27T05:13:12,42.805,6.029,CST-1368DR,5754,8052,15062,0.144,551
2020-11-27T05:16:13,42.805,6.029,CST-1368DR,5754,8051,15061,0.145,551
2020-11-27T05:19:15,42.805,6.029,CST-1368DR,5754,8050,15060,0.145,551
2020-11-27T05:22:16,42.805,6.029,CST-1368DR,5754,8051,15061,0.145,551
2020-11-27T05:25:18,42.805,6.029,CST-1368DR,5754,8051,15062,0.144,551
2020-11-27T05:28:19,42.805,6.029,CST-1368DR,5754,8051,15062,0.144,551
2020-11-27T05:31:21,42.805,6.029,CST-1368DR,5754,8052,15062,0.144,551
2020-11-27T05:34:23,42.805,6.029,CST-1368DR,5753,8051,15064,0.144,551
2020-11-27T05:37:24,42.805,6.029,CST-1368DR,5754,8051,15062,0.144,551
2020-11-27T05:40:26,42.805,6.029,CST-1368DR,5753,8051,15064,0.144,551
2020-11-27T05:43:27,42.805,6.029,CST-1368DR,5754,8051,15062,0.144,551
2020-11-27T05:46:29,42.805,6.029,CST-1368DR,5754,8051,15061,0.145,551
2020-11-27T05:49:30,42.805,6.029,CST-1368DR,5753,8051,15064,0.144,551
2020-11-27T05:52:32,42.805,6.029,CST-1368DR,5753,8051,15063,0.144,551
2020-11-27T05:55:34,42.805,6.029,CST-1368DR,5753,8051,15064,0.144,551
2020-11-27T05:58:35,42.805,6.029,CST-1368DR,5754,8051,15062,0.144,551
2020-11-27T06:01:37,42.805,6.029,CST-1368DR,5753,8050,15062,0.144,551
2020-11-27T06:04:38,42.805,6.029,CST-1368DR,5753,8051,15063,0.144,551
2020-11-27T06:07:40,42.805,6.029,CST-1368DR,5753,8051,15063,0.144,551
2020-11-27T06:10:42,42.805,6.029,CST-1368DR,5753,8051,15063,0.144,551
2020-11-27T06:13:43,42.805,6.029,CST-1368DR,5753,8051,15063,0.144,551
2020-11-27T06:16:45,42.805,6.029,CST-1368DR,5753,8051,15064,0.144,551
2020-11-27T06:19:46,42.805,6.029,CST-1368DR,5753,8051,15064,0.144,551
2020-11-27T06:22:48,42.805,6.029,CST-1368DR,5753,8051,15063,0.144,551
2020-11-27T06:25:49,42.805,6.029,CST-1368DR,5753,8050,15062,0.144,551
2020-11-27T06:28:51,42.805,6.029,CST-1368DR,5753,8050,15062,0.144,551
2020-11-27T06:31:53,42.805,6.029,CST-1368DR,5753,8051,15063,0.144,551
2020-11-27T06:34:54,42.805,6.029,CST-1368DR,5753,8051,15063,0.144,551
2020-11-27T06:37:56,42.805,6.029,CST-1368DR,5753,8051,15063,0.144,551
2020-11-27T06:40:57,42.805,6.029,CST-1368DR,5753,8050,15062,0.144,551
2020-11-27T06:43:59,42.805,6.029,CST-1368DR,5753,8051,15063,0.144,551
2020-11-27T06:47:00,42.805,6.029,CST-1368DR,5753,8050,15062,0.144,551
2020-11-27T06:50:02,42.805,6.029,CST-1368DR,5753,8051,15063,0.144,551
2020-11-27T06:53:04,42.805,6.029,CST-1368DR,5753,8050,15062,0.144,551
2020-11-27T06:56:05,42.805,6.029,CST-1368DR,5753,8051,15063,0.144,551
2020-11-27T06:59:07,42.805,6.029,CST-1368DR,5753,8051,15063,0.144,551
2020-11-27T07:02:08,42.805,6.029,CST-1368DR,5753,8050,15062,0.144,551
2020-11-27T07:05:10,42.805,6.029,CST-1368DR,5753,8050,15062,0.144,551
2020-11-27T07:08:12,42.805,6.029,CST-1368DR,5753,8050,15062,0.144,551
2020-11-27T07:11:13,42.805,6.029,CST-1368DR,5753,8051,15063,0.144,551
2020-11-27T07:14:15,42.805,6.029,CST-1368DR,5753,8050,15062,0.144,551
2020-11-27T07:17:16,42.805,6.029,CST-1368DR,5753,8050,15062,0.144,551
2020-11-27T07:20:18,42.805,6.029,CST-1368DR,5753,8050,15062,0.144,551
2020-11-27T07:23:19,42.805,6.029,CST-1368DR,5753,8050,15062,0.144,551
2020-11-27T07:26:21,42.805,6.029,CST-1368DR,5753,8050,15062,0.144,551
2020-11-27T07:29:23,42.805,6.029,CST-1368DR,5753,8049,15061,0.145,551
2020-11-27T07:32:24,42.805,6.029,CST-1368DR,5753,8050,15061,0.145,551
2020-11-27T07:35:26,42.805,6.029,CST-1368DR,5753,8050,15062,0.144,551
2020-11-27T07:38:27,42.805,6.029,CST-1368DR,5753,8050,15061,0.145,551
2020-11-27T07:41:29,42.805,6.029,CST-1368DR,5753,8049,15061,0.145,551
2020-11-27T07:44:31,42.805,6.029,CST-1368DR,5753,8050,15061,0.145,551
2020-11-27T07:47:32,42.805,6.029,CST-1368DR,5753,8050,15062,0.144,551
2020-11-27T07:50:34,42.805,6.029,CST-1368DR,5753,8050,15062,0.144,551
2020-11-27T07:53:35,42.805,6.029,CST-1368DR,5753,8050,15062,0.144,551
2020-11-27T07:56:37,42.805,6.029,CST-1368DR,5753,8050,15062,0.144,550
2020-11-27T07:59:38,42.805,6.029,CST-1368DR,5753,8047,15056,0.146,551
2020-11-27T08:02:40,42.805,6.029,CST-1368DR,5753,8050,15062,0.144,551
2020-11-27T08:05:42,42.805,6.029,CST-1368DR,5753,8050,15062,0.144,551
2020-11-27T08:08:43,42.805,6.029,CST-1368DR,5753,8049,15061,0.145,551
2020-11-27T08:11:45,42.805,6.029,CST-1368DR,5753,8049,15060,0.145,551
2020-11-27T08:14:46,42.805,6.029,CST-1368DR,5753,8050,15061,0.145,551
2020-11-27T08:17:48,42.805,6.029,CST-1368DR,5753,8049,15061,0.145,551
2020-11-27T08:20:50,42.805,6.029,CST-1368DR,5753,8049,15061,0.145,551
2020-11-27T08:23:51,42.805,6.029,CST-1368DR,5753,8049,15060,0.145,551
2020-11-27T08:26:53,42.805,6.029,CST-1368DR,5753,8049,15060,0.145,551
2020-11-27T08:29:54,42.805,6.029,CST-1368DR,5753,8049,15061,0.145,551
2020-11-27T08:32:56,42.805,6.029,CST-1368DR,5753,8049,15060,0.145,551
2020-11-27T08:35:57,42.805,6.029,CST-1368DR,5753,8048,15059,0.145,551
2020-11-27T08:38:59,42.805,6.029,CST-1368DR,5753,8049,15061,0.145,551
2020-11-27T08:42:01,42.805,6.029,CST-1368DR,5753,8050,15061,0.145,551
2020-11-27T08:45:02,42.805,6.029,CST-1368DR,5753,8049,15061,0.145,551
2020-11-27T08:48:04,42.805,6.029,CST-1368DR,5753,8049,15060,0.145,551
2020-11-27T08:51:05,42.805,6.029,CST-1368DR,5753,8049,15060,0.145,551
2020-11-27T08:54:07,42.805,6.029,CST-1368DR,5753,8048,15059,0.145,551
2020-11-27T08:57:08,42.805,6.029,CST-1368DR,5753,8049,15061,0.145,551
2020-11-27T09:00:10,42.805,6.029,CST-1368DR,5753,8049,15059,0.145,551
2020-11-27T09:03:12,42.805,6.029,CST-1368DR,5753,8048,15058,0.146,551
2020-11-27T09:06:13,42.805,6.029,CST-1368DR,5753,8048,15059,0.145,551
2020-11-27T09:09:15,42.805,6.029,CST-1368DR,5753,8049,15059,0.145,551
2020-11-27T09:12:16,42.805,6.029,CST-1368DR,5753,8049,15060,0.145,551
2020-11-27T09:15:18,42.805,6.029,CST-1368DR,5753,8048,15059,0.145,551
2020-11-27T09:18:20,42.805,6.029,CST-1368DR,5753,8049,15060,0.145,551
2020-11-27T09:21:21,42.805,6.029,CST-1368DR,5753,8049,15061,0.145,551
2020-11-27T09:24:23,42.805,6.029,CST-1368DR,5753,8049,15061,0.145,551
2020-11-27T09:27:24,42.805,6.029,CST-1368DR,5753,8049,15059,0.145,551
2020-11-27T09:30:26,42.805,6.029,CST-1368DR,5753,8049,15059,0.145,551
2020-11-27T09:33:27,42.805,6.029,CST-1368DR,5753,8050,15062,0.144,551
2020-11-27T09:36:29,42.805,6.029,CST-1368DR,5753,8049,15061,0.145,551
2020-11-27T09:39:31,42.805,6.029,CST-1368DR,5753,8049,15060,0.145,551
2020-11-27T09:42:32,42.805,6.029,CST-1368DR,5753,8050,15061,0.145,551
2020-11-27T09:45:34,42.805,6.029,CST-1368DR,5753,8050,15062,0.144,551
2020-11-27T09:48:35,42.805,6.029,CST-1368DR,5753,8049,15061,0.145,551
2020-11-27T09:51:37,42.805,6.029,CST-1368DR,5753,8049,15061,0.145,551
2020-11-27T09:54:39,42.805,6.029,CST-1368DR,5753,8050,15062,0.144,551
2020-11-27T09:57:40,42.805,6.029,CST-1368DR,5753,8050,15061,0.145,551
2020-11-27T10:00:42,42.805,6.029,CST-1368DR,5753,8050,15061,0.145,550
2020-11-27T10:03:43,42.805,6.029,CST-1368DR,5753,8050,15061,0.145,551
2020-11-27T10:06:45,42.805,6.029,CST-1368DR,5753,8050,15061,0.145,551
2020-11-27T10:09:46,42.805,6.029,CST-1368DR,5753,8050,15061,0.145,551
2020-11-27T10:12:48,42.805,6.029,CST-1368DR,5753,8050,15062,0.144,551
2020-11-27T10:15:50,42.805,6.029,CST-1368DR,5753,8050,15061,0.145,550
2020-11-27T10:18:51,42.805,6.029,CST-1368DR,5753,8050,15062,0.144,551
2020-11-27T10:21:53,42.805,6.029,CST-1368DR,5753,8049,15061,0.145,551
2020-11-27T10:24:54,42.805,6.029,CST-1368DR,5753,8049,15061,0.145,551
2020-11-27T10:27:56,42.805,6.029,CST-1368DR,5753,8050,15061,0.145,551
2020-11-27T10:30:57,42.805,6.029,CST-1368DR,5753,8050,15061,0.145,551
2020-11-27T10:33:59,42.805,6.029,CST-1368DR,5753,8050,15062,0.144,551
2020-11-27T10:37:01,42.805,6.029,CST-1368DR,5753,8050,15061,0.145,551
2020-11-27T10:40:02,42.805,6.029,CST-1368DR,5753,8049,15061,0.145,551
2020-11-27T10:43:04,42.805,6.029,CST-1368DR,5753,8049,15060,0.145,551
2020-11-27T10:46:05,42.805,6.029,CST-1368DR,5753,8049,15061,0.145,551
2020-11-27T10:49:07,42.805,6.029,CST-1368DR,5753,8050,15061,0.145,551
2020-11-27T10:52:09,42.805,6.029,CST-1368DR,5753,8049,15059,0.145,551
2020-11-27T10:55:10,42.805,6.029,CST-1368DR,5753,8049,15061,0.145,551
2020-11-27T10:58:12,42.805,6.029,CST-1368DR,5753,8049,15061,0.145,551
2020-11-27T11:01:13,42.805,6.029,CST-1368DR,5753,8049,15061,0.145,551
2020-11-27T11:04:15,42.805,6.029,CST-1368DR,5753,8048,15059,0.145,551
2020-11-27T11:07:16,42.805,6.029,CST-1368DR,5753,8049,15060,0.145,551
2020-11-27T11:10:18,42.805,6.029,CST-1368DR,5753,8049,15060,0.145,551
2020-11-27T11:13:20,42.805,6.029,CST-1368DR,5753,8049,15059,0.145,551
2020-11-27T11:16:21,42.805,6.029,CST-1368DR,5753,8049,15061,0.145,551
2020-11-27T11:19:23,42.805,6.029,CST-1368DR,5753,8049,15061,0.145,551
2020-11-27T11:22:24,42.805,6.029,CST-1368DR,5753,8049,15059,0.145,551
2020-11-27T11:25:26,42.805,6.029,CST-1368DR,5753,8049,15060,0.145,551
2020-11-27T11:28:28,42.805,6.029,CST-1368DR,5753,8050,15061,0.145,551
2020-11-27T11:31:29,42.805,6.029,CST-1368DR,5753,8049,15061,0.145,551
2020-11-27T11:34:31,42.805,6.029,CST-1368DR,5753,8049,15059,0.145,551
2020-11-27T11:37:32,42.805,6.029,CST-1368DR,5753,8049,15061,0.145,551
2020-11-27T11:40:34,42.805,6.029,CST-1368DR,5753,8049,15060,0.145,551
2020-11-27T11:43:35,42.805,6.029,CST-1368DR,5753,8048,15059,0.145,551
2020-11-27T11:46:37,42.805,6.029,CST-1368DR,5753,8049,15060,0.145,551
2020-11-27T11:49:39,42.805,6.029,CST-1368DR,5753,8049,15059,0.145,551
2020-11-27T11:52:40,42.805,6.029,CST-1368DR,5753,8049,15059,0.145,551
2020-11-27T11:55:42,42.805,6.029,CST-1368DR,5753,8049,15060,0.145,551
2020-11-27T11:58:43,42.805,6.029,CST-1368DR,5753,8049,15060,0.145,551
2020-11-27T12:01:45,42.805,6.029,CST-1368DR,5753,8049,15061,0.145,551
2020-11-27T12:04:46,42.805,6.029,CST-1368DR,5753,8049,15059,0.145,551
2020-11-27T12:07:48,42.805,6.029,CST-1368DR,5753,8049,15060,0.145,551
2020-11-27T12:10:50,42.805,6.029,CST-1368DR,5753,8049,15061,0.145,551
2020-11-27T12:13:51,42.805,6.029,CST-1368DR,5753,8049,15061,0.145,551
2020-11-27T12:16:53,42.805,6.029,CST-1368DR,5753,8048,15057,0.146,551
2020-11-27T12:19:54,42.805,6.029,CST-1368DR,5753,8049,15060,0.145,549
2020-11-27T12:22:56,42.805,6.029,CST-1368DR,5753,8048,15059,0.145,551
2020-11-27T12:25:58,42.805,6.029,CST-1368DR,5753,8049,15059,0.145,551
2020-11-27T12:28:59,42.805,6.029,CST-1368DR,5753,8049,15059,0.145,551
2020-11-27T12:32:01,42.805,6.029,CST-1368DR,5753,8049,15060,0.145,551
2020-11-27T12:35:02,42.805,6.029,CST-1368DR,5753,8049,15059,0.145,551
2020-11-27T12:38:04,42.805,6.029,CST-1368DR,5753,8049,15059,0.145,551
2020-11-27T12:41:05,42.805,6.029,CST-1368DR,5753,8049,15059,0.145,551
2020-11-27T12:44:07,42.805,6.029,CST-1368DR,5753,8049,15060,0.145,551
2020-11-27T12:47:09,42.805,6.029,CST-1368DR,5753,8049,15059,0.145,551
2020-11-27T12:50:10,42.805,6.029,CST-1368DR,5753,8049,15060,0.145,550
2020-11-27T12:53:12,42.805,6.029,CST-1368DR,5753,8049,15061,0.145,551
2020-11-27T12:56:13,42.805,6.029,CST-1368DR,5753,8048,15059,0.145,551
2020-11-27T12:59:15,42.805,6.029,CST-1368DR,5753,8049,15061,0.145,551
2020-11-27T13:02:17,42.805,6.029,CST-1368DR,5753,8048,15059,0.145,551
2020-11-27T13:05:18,42.805,6.029,CST-1368DR,5753,8049,15059,0.145,551
2020-11-27T13:08:20,42.805,6.029,CST-1368DR,5753,8049,15059,0.145,551
2020-11-27T13:11:21,42.805,6.029,CST-1368DR,5753,8048,15059,0.145,551
2020-11-27T13:14:23,42.805,6.029,CST-1368DR,5753,8048,15059,0.145,551
2020-11-27T13:17:24,42.805,6.029,CST-1368DR,5753,8049,15059,0.145,551
2020-11-27T13:20:26,42.805,6.029,CST-1368DR,5753,8048,15058,0.146,551
2020-11-27T13:23:28,42.805,6.029,CST-1368DR,5753,8048,15059,0.145,551
2020-11-27T13:26:29,42.805,6.029,CST-1368DR,5753,8048,15059,0.145,551
2020-11-27T13:29:31,42.805,6.029,CST-1368DR,5753,8048,15058,0.146,551
2020-11-27T13:32:32,42.805,6.029,CST-1368DR,5753,8049,15059,0.145,551
2020-11-27T13:35:34,42.805,6.029,CST-1368DR,5753,8047,15057,0.146,551
2020-11-27T13:38:35,42.805,6.029,CST-1368DR,5753,8049,15060,0.145,551
2020-11-27T13:41:37,42.805,6.029,CST-1368DR,5753,8049,15060,0.145,551
2020-11-27T13:44:39,42.805,6.029,CST-1368DR,5753,8049,15060,0.145,551
2020-11-27T13:47:40,42.805,6.029,CST-1368DR,5753,8048,15059,0.145,551
2020-11-27T13:50:42,42.805,6.029,CST-1368DR,5753,8048,15059,0.145,551
2020-11-27T13:53:43,42.805,6.029,CST-1368DR,5753,8049,15059,0.145,551
2020-11-27T13:56:45,42.805,6.029,CST-1368DR,5753,8048,15058,0.146,551
2020-11-27T13:59:47,42.805,6.029,CST-1368DR,5753,8049,15061,0.145,551
2020-11-27T14:02:48,42.805,6.029,CST-1368DR,5752,8049,15063,0.144,551
2020-11-27T14:05:50,42.805,6.029,CST-1368DR,5753,8048,15058,0.146,551
2020-11-27T14:08:51,42.805,6.029,CST-1368DR,5752,8048,15061,0.145,551
2020-11-27T14:11:53,42.805,6.029,CST-1368DR,5752,8048,15061,0.145,551
2020-11-27T14:14:54,42.805,6.029,CST-1368DR,5752,8049,15063,0.144,551
2020-11-27T14:17:56,42.805,6.029,CST-1368DR,5752,8049,15063,0.144,551
2020-11-27T14:20:58,42.805,6.029,CST-1368DR,5752,8048,15061,0.145,551
2020-11-27T14:23:59,42.805,6.029,CST-1368DR,5753,8048,15058,0.146,551
2020-11-27T14:27:01,42.805,6.029,CST-1368DR,5752,8048,15061,0.145,551
2020-11-27T14:30:02,42.805,6.029,CST-1368DR,5752,8049,15063,0.144,551
2020-11-27T14:33:04,42.805,6.029,CST-1368DR,5752,8048,15061,0.145,551
2020-11-27T14:36:05,42.805,6.029,CST-1368DR,5752,8049,15063,0.144,551
2020-11-27T14:39:07,42.805,6.029,CST-1368DR,5752,8049,15063,0.144,551
2020-11-27T14:42:09,42.805,6.029,CST-1368DR,5752,8049,15063,0.144,551
2020-11-27T14:45:10,42.805,6.029,CST-1368DR,5752,8048,15061,0.145,551
2020-11-27T14:48:12,42.805,6.029,CST-1368DR,5752,8050,15064,0.144,551
2020-11-27T14:51:13,42.805,6.029,CST-1368DR,5752,8049,15062,0.144,551
2020-11-27T14:54:15,42.805,6.029,CST-1368DR,5752,8049,15063,0.144,551
2020-11-27T14:57:17,42.805,6.029,CST-1368DR,5752,8049,15062,0.144,551
2020-11-27T15:00:18,42.805,6.029,CST-1368DR,5752,8049,15063,0.144,551
2020-11-27T15:03:20,42.805,6.029,CST-1368DR,5752,8050,15064,0.144,551
2020-11-27T15:06:21,42.805,6.029,CST-1368DR,5752,8049,15062,0.144,551
2020-11-27T15:09:23,42.805,6.029,CST-1368DR,5752,8049,15063,0.144,551
2020-11-27T15:12:24,42.805,6.029,CST-1368DR,5752,8049,15063,0.144,551
2020-11-27T15:15:26,42.805,6.029,CST-1368DR,5752,8049,15062,0.144,550
2020-11-27T15:18:28,42.805,6.029,CST-1368DR,5752,8049,15062,0.144,551
2020-11-27T15:21:29,42.805,6.029,CST-1368DR,5752,8048,15061,0.145,551
2020-11-27T15:24:31,42.805,6.029,CST-1368DR,5752,8050,15064,0.144,551
2020-11-27T15:27:32,42.805,6.029,CST-1368DR,5752,8049,15062,0.144,551
2020-11-27T15:30:34,42.805,6.029,CST-1368DR,5752,8048,15061,0.145,551
2020-11-27T15:33:36,42.805,6.029,CST-1368DR,5752,8047,15059,0.145,551
2020-11-27T15:36:37,42.805,6.029,CST-1368DR,5752,8048,15061,0.145,551
2020-11-27T15:39:39,42.805,6.029,CST-1368DR,5752,8049,15063,0.144,551
2020-11-27T15:42:40,42.805,6.029,CST-1368DR,5752,8049,15063,0.144,551
2020-11-27T15:45:42,42.805,6.029,CST-1368DR,5752,8049,15063,0.144,551
2020-11-27T15:48:43,42.805,6.029,CST-1368DR,5752,8048,15061,0.145,551
2020-11-27T15:51:45,42.805,6.029,CST-1368DR,5752,8048,15060,0.145,551
2020-11-27T15:54:47,42.805,6.029,CST-1368DR,5752,8048,15061,0.145,551
2020-11-27T15:57:48,42.805,6.029,CST-1368DR,5752,8049,15063,0.144,551
2020-11-27T16:00:50,42.805,6.029,CST-1368DR,5752,8047,15059,0.145,551
2020-11-27T16:03:51,42.805,6.029,CST-1368DR,5752,8048,15061,0.145,551
2020-11-27T16:06:53,42.805,6.029,CST-1368DR,5752,8047,15059,0.145,551
2020-11-27T16:09:55,42.805,6.029,CST-1368DR,5752,8048,15061,0.145,551
2020-11-27T16:12:56,42.805,6.029,CST-1368DR,5752,8049,15062,0.144,551
2020-11-27T16:15:58,42.805,6.029,CST-1368DR,5752,8048,15061,0.145,551
2020-11-27T16:18:59,42.805,6.029,CST-1368DR,5752,8048,15060,0.145,551
2020-11-27T16:22:01,42.805,6.029,CST-1368DR,5752,8048,15060,0.145,551
2020-11-27T16:25:02,42.805,6.029,CST-1368DR,5752,8049,15062,0.144,551
2020-11-27T16:28:04,42.805,6.029,CST-1368DR,5752,8048,15061,0.145,551
2020-11-27T16:31:06,42.805,6.029,CST-1368DR,5752,8048,15061,0.145,551
2020-11-27T16:34:07,42.805,6.029,CST-1368DR,5752,8047,15059,0.145,551
2020-11-27T16:37:09,42.805,6.029,CST-1368DR,5752,8048,15061,0.145,551
2020-11-27T16:40:10,42.805,6.029,CST-1368DR,5752,8048,15061,0.145,551
2020-11-27T16:43:12,42.805,6.029,CST-1368DR,5752,8048,15061,0.145,551
2020-11-27T16:46:14,42.805,6.029,CST-1368DR,5752,8049,15062,0.144,550
2020-11-27T16:49:15,42.805,6.029,CST-1368DR,5752,8048,15061,0.145,551
2020-11-27T16:52:17,42.805,6.029,CST-1368DR,5752,8048,15061,0.145,551